User: anonymous   Login
Location: Unspecified
(0.0000°N, 0.0000°E)
Time: 19:23:14
(UTC+00:00)
Language:

STARLINK-4257 - Orbit

View from above orbital plane
View from above orbital plane
View from above satellite
View from above satellite

Ground track
Ground track

The orbit is defined by the following mean orbital elements,

1 53184U          26145.24537580 +.00000000 +00000-0 +49879-4 0 00007
2 53184  53.2139 140.0332 0001263  76.0040 284.1093 15.08841524    03
Epoch (UTC): 25 May 2026 05:53:20
Eccentricity: 0.0001263
inclination: 53.2139°
perigee height: 539 km
apogee height: 541 km
right ascension of ascending node: 140.0332°
argument of perigee: 76.0040°
revolutions per day: 15.08841524
mean anomaly at epoch: 284.1093°

The dashed part of the orbit path shows where the satellite is in the earth's shadow,  

DLR